This demonstration page uses our WeatherBlox Daily Observations layout. Learn more.

Left ArrowRight Arrow

Hourly Observations for June 3, 2019

Temp ( °F °C ) Dew Point ( °F °C ) Humidity (%) Winds ( mph kmh ) Pressure ( in mb ) Visibility ( mi km ) Precip ( " mm )
12:53 am 00:53 Clear 58 14.4 49 9.4 72 72 WSW 6 9 29.67 1005 10 16 0.00 0.00
1:53 am 01:53 Clear 57 13.9 49 9.4 74 74 W 5 7 29.67 1005 10 16 0.00 0.00
2:53 am 02:53 Clear 62 16.7 49 9.4 62 62 SW 14 22 29.65 1004 10 16 0.00 0.00
3:53 am 03:53 Clear 57 13.9 49 9.4 74 74 WSW 9 15 29.67 1005 10 16 0.00 0.00
4:53 am 04:53 Clear 56 13.3 49 9.4 77 77 W 6 9 29.66 1005 10 16 0.00 0.00
5:53 am 05:53 Sunny 54 12.2 50 10 87 87 SW 8 13 29.67 1005 10 16 0.00 0.00
6:53 am 06:53 Sunny 60 15.6 50 10 70 70 SW 10 17 29.67 1005 10 16 0.00 0.00
7:53 am 07:53 Sunny 67 19.4 52 11.1 59 59 SW 17 28 29.67 1005 10 16 0.00 0.00
8:53 am 08:53 Sunny 72 22.2 51 10.6 48 48 SW 17 28 29.68 1005 10 16 0.00 0.00
9:53 am 09:53 Sunny 75 23.9 51 10.6 43 43 SSW 22 35 29.67 1005 10 16 0.00 0.00
10:53 am 10:53 Sunny 79 26.1 53 11.7 41 41 SW 16 26 29.67 1005 10 16 0.00 0.00
11:53 am 11:53 Sunny 84 28.9 46 7.8 27 27 SW 15 24 29.65 1004 10 16 0.00 0.00
12:53 pm 12:53 Sunny 86 30 37 2.8 18 18 W 23 37 29.64 1004 10 16 0.00 0.00
1:53 pm 13:53 Sunny 87 30.6 37 2.8 17 17 W 25 41 29.63 1003 10 16 0.00 0.00
2:53 pm 14:53 Sunny 87 30.6 38 3.3 18 18 W 20 31 29.61 1003 10 16 0.00 0.00
3:53 pm 15:53 Sunny 86 30 38 3.3 18 18 W 20 31 29.62 1003 10 16 0.00 0.00
4:53 pm 16:53 Sunny 88 31.1 37 2.8 16 16 WSW 24 39 29.60 1002 10 16 0.00 0.00
5:53 pm 17:53 Sunny 87 30.6 37 2.8 17 17 W 23 37 29.61 1003 10 16 0.00 0.00
6:53 pm 18:53 Sunny 83 28.3 38 3.3 20 20 WNW 18 30 29.61 1003 10 16 0.00 0.00
7:53 pm 19:53 Sunny 79 26.1 41 5 26 26 W 14 22 29.62 1003 10 16 0.00 0.00
8:53 pm 20:53 Sunny 75 23.9 40 4.4 28 28 WSW 15 24 29.63 1003 10 16 0.00 0.00
9:53 pm 21:53 Clear 70 21.1 38 3.3 31 31 WNW 8 13 29.66 1005 10 16 0.00 0.00
10:53 pm 22:53 Clear 61 16.1 41 5 48 48 SW 8 13 29.70 1006 10 16 0.00 0.00
11:53 pm 23:53 Clear 58 14.4 42 5.6 56 56 SW 8 13 29.70 1006 10 16 0.00 0.00

Powered by AerisWeather